Regional Weather Roundup
Issued by NWS

Home | Current Version | Previous Version | Graphics & Text | Print | Product List | Glossary On
Versions: 1 2 3 4 5 6 7 8 9 10 11 12 13 14 15 16 17 18 19 20 21 22 23 24 25 26 27 28 29 30 31 32 33 34 35 36 37 38 39 40 41 42 43 44 45 46 47 48 49 50
000
ASUS45 KABQ 010201
RWRNM
NEW MEXICO REGIONAL WEATHER ROUNDUP
NATIONAL WEATHER SERVICE ALBUQUERQUE NM
800 PM MDT FRI JUL 31 2015

NOTE: "FAIR" MEANS FEW OR NO CLOUDS BELOW 12,000 FEET AGL WITH NO
       SIGNIFICANT WEATHER OR OBSTRUCTIONS TO VISION.

      THIS PRODUCT IS RELEASED AS TWO VERSIONS.  ONE VERSION NEAR
      THE TOP OF THE HOUR CONTAINING PRELIMINARY DATA FROM ALBUQUERQUE
      AND OTHER STATIONS.  A FINAL VERSION WITH ADDITIONAL DATA IS
      ISSUED ABOUT 10 MINUTES AFTER THE HOUR.

NMZ501-503-504-510>518-010300-
NORTHWEST PLATEAU/NORTHCENTRAL MOUNTAINS

CITY           SKY/WX    TMP DP  RH WIND       PRES   REMARKS
FARMINGTON     CLEAR     73  58  59 E7        30.24F
SANTA FE       CLOUDY    65  56  72 SW3G21    30.35R
TAOS           MOCLDY    63  50  63 N7        30.42R

$$
NMZ402-403-502-505>509-010300-
WESTCENTRAL MOUNTAINS/SOUTHWEST MOUNTAINS

CITY           SKY/WX    TMP DP  RH WIND       PRES   REMARKS
GALLUP         LGT RAIN  63  58  83 S10       30.35R
SILVER CITY      N/A     81  57  44 SE9       30.23R

$$
NMZ407-409-411-412-010300-
SOUTHERN DESERTS

CITY           SKY/WX    TMP DP  RH WIND       PRES   REMARKS
DEMING         CLEAR     84  55  36 SE7       30.12R
HOLLOMAN AFB   CLOUDY    87  53  31 NE7       30.10R
ALAMOGORDO     MOCLDY    86  54  32 NW7       30.12R
T OR C         PTCLDY    86  55  34 S7        30.16R

$$
NMZ519>523-010300-
CENTRAL VALLEYS/CENTRAL HIGHLANDS

CITY           SKY/WX    TMP DP  RH WIND       PRES   REMARKS
ALBUQUERQUE    CLOUDY    77  55  46 E13       30.26F
DOUBLE EAGLE   MOCLDY    68  59  73 NE10      30.29F
MORIARTY ARPT    N/A     66  61  84 CALM      30.37R
CLINES CORNERS LGT RAIN  65  60  84 CALM      30.38S
BELEN          FAIR      75  58  54 W10       30.25R THUNDER
SOCORRO        NOT AVBL

$$
NMZ524>526-539-540-010300-
SOUTHCENTRAL MOUNTAINS

CITY           SKY/WX    TMP DP  RH WIND       PRES   REMARKS
RUIDOSO          N/A    N/A N/A N/A MISG        N/A

$$
NMZ527>531-010300-
NORTHEAST HIGHLANDS/NORTHEAST PLAINS

CITY           SKY/WX    TMP DP  RH WIND       PRES   REMARKS
LAS VEGAS      CLOUDY    61  57  87 SW6       30.38R
RATON          CLOUDY    66  59  78 SW7       30.31R
CLAYTON        CLOUDY    73  66  78 SE10      30.24R

$$
NMZ532>537-010300-
EASTCENTRAL PLAINS

CITY           SKY/WX    TMP DP  RH WIND       PRES   REMARKS
TUCUMCARI      LGT RAIN  68  64  87 CALM      30.19R
CANNON AFB     LGT RAIN  72  66  80 N9        30.21S
CLOVIS AIRPORT CLOUDY    75  64  69 W7        30.22R

$$
NMZ028-029-538-010300-
SOUTHEAST PLAINS

CITY           SKY/WX    TMP DP  RH WIND       PRES   REMARKS
ROSWELL        PTCLDY    86  59  39 N8        30.12R
ARTESIA        CLEAR     91  50  24 SE6       30.10R
CARLSBAD       CLEAR     91  50  24 SE5       30.06R
HOBBS          MOCLDY    90  48  24 E8        30.13R


$$



USA.gov is the U.S. government's official web portal to all federal, state and local government web resources and services.